This is the latest recevied weather packets stored in our database for station/object KA9CBS. If no packets are shown the sender has not sent any weather packets the latest 10 day(s).
| Time | Temp. | Humidity | Pressure | Rain* | Wind** | Luminosity | Snow |
|---|---|---|---|---|---|---|---|
| 1787668208 | 23.89° C | 74% | 1021.3 hPa | 0 mm | - | 379 W/m² | - |
| 1787667902 | 23.89° C | 73% | 1021.1 hPa | 0 mm | - | 344 W/m² | - |
| 1787667597 | 23.89° C | 74% | 1021.2 hPa | 0 mm | - | 340 W/m² | - |
| 1787667294 | 23.89° C | 74% | 1020.9 hPa | 0 mm | - | 318 W/m² | - |
| 1787666993 | 23.89° C | 75% | 1021.1 hPa | 0 mm | - | 292 W/m² | - |
| 1787666689 | 23.33° C | 75% | 1021.1 hPa | 0 mm | - | 279 W/m² | - |
| 1787666388 | 23.33° C | 76% | 1021.1 hPa | 0 mm | - | 266 W/m² | - |
| 1787666084 | 22.78° C | 77% | 1020.9 hPa | 0 mm | - | 247 W/m² | - |
| 1787665784 | 22.78° C | 76% | 1021.2 hPa | 0 mm | - | 228 W/m² | - |
| 1787665479 | 22.78° C | 77% | 1020.9 hPa | 0 mm | - | 223 W/m² | - |
| 1787665174 | 22.22° C | 78% | 1020.8 hPa | 0 mm | - | 208 W/m² | - |
| 1787664872 | 22.22° C | 79% | 1020.7 hPa | 0 mm | - | 196 W/m² | - |
| 1787664572 | 21.67° C | 78% | 1021 hPa | 0 mm | - | 181 W/m² | - |
| 1787664266 | 21.67° C | 79% | 1020.9 hPa | 0 mm | - | 168 W/m² | - |
| 1787663966 | 21.67° C | 81% | 1020.7 hPa | 0 mm | - | 153 W/m² | - |
| 1787663660 | 21.67° C | 81% | 1020.9 hPa | 0 mm | - | 134 W/m² | - |
| 1787663356 | 21.67° C | 82% | 1020.9 hPa | 0 mm | - | 116 W/m² | - |
| 1787663052 | 21.11° C | 83% | 1020.9 hPa | 0 mm | - | 75 W/m² | - |
| 1787662752 | 21.11° C | 83% | 1020.8 hPa | 0 mm | - | 67 W/m² | - |
| 1787662447 | 20.56° C | 85% | 1021 hPa | 0 mm | - | 63 W/m² | - |
| 1787662142 | 20° C | 86% | 1020.8 hPa | 0 mm | - | 58 W/m² | - |
| 1787661839 | 19.44° C | 88% | 1020.9 hPa | 0 mm | - | 55 W/m² | - |
| 1787661538 | 18.89° C | 89% | 1020.9 hPa | 0 mm | - | 51 W/m² | - |
| 1787661236 | 18.33° C | 90% | 1020.7 hPa | 0 mm | - | 45 W/m² | - |
| 1787660935 | 18.33° C | 91% | 1020.7 hPa | 0 mm | - | 40 W/m² | - |
* Rain latest hour (hover to see other rain measurements)
** Current wind speed in m/s (hover to see current wind gust speed)